When you browse on this site, cookies collect data to enhance your experience and personalize the content and advertising you see.
Visit our Privacy Policy to learn more. By continuing to use the site, you agree to this use of cookies and data.
  • In Österreich
  • Länderverzeichnis
  • Für 7 Tage
  • Wassertemperatur
  • Satellitenkarten
  • Wetterkarte
  • News
  • Widgets
  • user-avatar
    Anmelden

    Stündliche Wetter Mendoza

    Heute, 19 April, Freitag

    Zeit Temperatur Niederschläge Wind Luftdruck Luftfeuchtigkeit
    00:00 +21°C° 0 mm 2 m/S 696 mmHg 80%
    01:00 +20°C° 0 mm 2 m/S 696 mmHg 83%
    02:00 +20°C° 0 mm 2 m/S 696 mmHg 85%
    03:00 +20°C° 0 mm 3 m/S 697 mmHg 87%
    04:00 +19°C° 0 mm 3 m/S 697 mmHg 89%
    05:00 +20°C° 0 mm 3 m/S 697 mmHg 88%
    06:00 +20°C° 0 mm 3 m/S 697 mmHg 87%
    07:00 +20°C° 0 mm 3 m/S 697 mmHg 86%
    08:00 +21°C° 0 mm 3 m/S 697 mmHg 77%
    09:00 +24°C° 0 mm 3 m/S 697 mmHg 69%
    10:00 +25°C° 0 mm 2 m/S 697 mmHg 60%
    11:00 +26°C° 0 mm 2 m/S 697 mmHg 56%
    12:00 +27°C° 0 mm 3 m/S 697 mmHg 53%
    13:00 +28°C° 0 mm 3 m/S 696 mmHg 49%
    14:00 +27°C° 0.1 mm 2 m/S 696 mmHg 50%
    15:00 +27°C° 0.1 mm 2 m/S 696 mmHg 50%
    16:00 +27°C° 0.1 mm 1 m/S 696 mmHg 50%
    17:00 +26°C° 0.5 mm 1 m/S 696 mmHg 53%
    18:00 +25°C° 0.5 mm 2 m/S 697 mmHg 56%
    19:00 +24°C° 0.5 mm 2 m/S 697 mmHg 59%
    20:00 +24°C° 0.7 mm 2 m/S 697 mmHg 62%
    21:00 +24°C° 0.7 mm 3 m/S 698 mmHg 65%
    22:00 +22°C° 0.7 mm 3 m/S 698 mmHg 67%
    23:00 +22°C° 0.7 mm 3 m/S 698 mmHg 67%

    Morgen, 20 April, Samstag

    Zeit Temperatur Niederschläge Wind Luftdruck Luftfeuchtigkeit
    00:00 +22°C° 0.7 mm 4 m/S 698 mmHg 66%
    01:00 +22°C° 0.7 mm 4 m/S 698 mmHg 65%
    02:00 +21°C° 0.5 mm 5 m/S 698 mmHg 67%
    03:00 +20°C° 0.5 mm 6 m/S 698 mmHg 69%
    04:00 +20°C° 0.5 mm 6 m/S 698 mmHg 71%
    05:00 +19°C° 0.1 mm 6 m/S 699 mmHg 70%
    06:00 +18°C° 0.1 mm 7 m/S 699 mmHg 68%
    07:00 +17°C° 0.1 mm 7 m/S 699 mmHg 67%
    08:00 +18°C° 0 mm 7 m/S 699 mmHg 66%
    09:00 +18°C° 0 mm 7 m/S 699 mmHg 65%
    10:00 +18°C° 0 mm 7 m/S 699 mmHg 63%
    11:00 +20°C° 0 mm 7 m/S 698 mmHg 60%
    12:00 +20°C° 0 mm 7 m/S 698 mmHg 57%
    13:00 +20°C° 0 mm 7 m/S 697 mmHg 54%
    14:00 +20°C° 0 mm 6 m/S 697 mmHg 51%
    15:00 +20°C° 0 mm 6 m/S 697 mmHg 49%
    16:00 +20°C° 0 mm 5 m/S 697 mmHg 46%
    17:00 +19°C° 0 mm 5 m/S 698 mmHg 49%
    18:00 +17°C° 0 mm 5 m/S 698 mmHg 53%
    19:00 +16°C° 0 mm 5 m/S 698 mmHg 56%
    20:00 +16°C° 0 mm 5 m/S 698 mmHg 56%
    21:00 +16°C° 0 mm 5 m/S 699 mmHg 55%
    22:00 +15°C° 0 mm 5 m/S 699 mmHg 55%
    23:00 +15°C° 0 mm 5 m/S 699 mmHg 55%

    übermorgen, 21 April, Sonntag

    Zeit Temperatur Niederschläge Wind Luftdruck Luftfeuchtigkeit
    00:00 +15°C° 0 mm 5 m/S 698 mmHg 56%
    01:00 +15°C° 0 mm 5 m/S 698 mmHg 56%
    02:00 +14°C° 0 mm 5 m/S 698 mmHg 56%
    03:00 +14°C° 0 mm 5 m/S 698 mmHg 57%
    04:00 +14°C° 0 mm 5 m/S 698 mmHg 57%
    05:00 +14°C° 0 mm 5 m/S 698 mmHg 56%
    06:00 +14°C° 0 mm 5 m/S 698 mmHg 55%
    07:00 +15°C° 0 mm 5 m/S 699 mmHg 53%
    08:00 +16°C° 0 mm 6 m/S 699 mmHg 50%
    09:00 +17°C° 0 mm 6 m/S 700 mmHg 46%
    10:00 +20°C° 0 mm 7 m/S 700 mmHg 43%
    11:00 +20°C° 0 mm 7 m/S 700 mmHg 42%
    12:00 +21°C° 0 mm 7 m/S 699 mmHg 41%
    13:00 +21°C° 0 mm 7 m/S 699 mmHg 41%
    14:00 +21°C° 0 mm 7 m/S 699 mmHg 42%
    15:00 +20°C° 0 mm 6 m/S 699 mmHg 43%
    16:00 +20°C° 0 mm 6 m/S 699 mmHg 44%
    17:00 +19°C° 0 mm 5 m/S 700 mmHg 46%
    18:00 +19°C° 0 mm 4 m/S 700 mmHg 47%
    19:00 +18°C° 0 mm 4 m/S 701 mmHg 49%
    20:00 +18°C° 0 mm 3 m/S 701 mmHg 51%
    21:00 +17°C° 0 mm 3 m/S 701 mmHg 53%
    22:00 +16°C° 0 mm 3 m/S 701 mmHg 54%
    23:00 +16°C° 0 mm 3 m/S 701 mmHg 55%

    22 April, Montag

    Zeit Temperatur Niederschläge Wind Luftdruck Luftfeuchtigkeit
    00:00 +15°C° 0 mm 2 m/S 701 mmHg 56%
    01:00 +15°C° 0 mm 2 m/S 700 mmHg 57%
    02:00 +14°C° 0 mm 2 m/S 700 mmHg 58%
    03:00 +14°C° 0 mm 2 m/S 700 mmHg 59%
    04:00 +14°C° 0 mm 2 m/S 700 mmHg 59%
    05:00 +14°C° 0 mm 2 m/S 700 mmHg 57%
    06:00 +15°C° 0 mm 2 m/S 700 mmHg 54%
    07:00 +15°C° 0 mm 1 m/S 701 mmHg 52%
    08:00 +18°C° 0 mm 1 m/S 701 mmHg 47%
    09:00 +19°C° 0 mm 1 m/S 701 mmHg 42%
    10:00 +19°C° 0 mm 2 m/S 701 mmHg 37%
    11:00 +20°C° 0 mm 2 m/S 700 mmHg 35%
    12:00 +21°C° 0 mm 2 m/S 700 mmHg 33%
    13:00 +23°C° 0 mm 2 m/S 699 mmHg 31%
    14:00 +23°C° 0 mm 2 m/S 699 mmHg 32%
    15:00 +22°C° 0 mm 3 m/S 699 mmHg 32%
    16:00 +22°C° 0 mm 3 m/S 699 mmHg 33%
    17:00 +21°C° 0 mm 3 m/S 699 mmHg 36%
    18:00 +20°C° 0 mm 3 m/S 699 mmHg 40%
    19:00 +19°C° 0 mm 3 m/S 700 mmHg 43%
    20:00 +18°C° 0 mm 2 m/S 700 mmHg 45%
    21:00 +18°C° 0 mm 2 m/S 700 mmHg 47%
    22:00 +17°C° 0 mm 2 m/S 700 mmHg 50%
    23:00 +17°C° 0 mm 2 m/S 699 mmHg 51%

    23 April, Dienstag

    Zeit Temperatur Niederschläge Wind Luftdruck Luftfeuchtigkeit
    00:00 +16°C° 0 mm 2 m/S 699 mmHg 52%
    01:00 +16°C° 0 mm 2 m/S 699 mmHg 53%
    02:00 +15°C° 0 mm 1 m/S 698 mmHg 57%
    03:00 +15°C° 0 mm 1 m/S 698 mmHg 60%
    04:00 +14°C° 0 mm 1 m/S 698 mmHg 63%
    05:00 +15°C° 0 mm 1 m/S 698 mmHg 62%
    06:00 +15°C° 0 mm 2 m/S 699 mmHg 61%
    07:00 +16°C° 0 mm 2 m/S 699 mmHg 60%
    08:00 +17°C° 0 mm 2 m/S 699 mmHg 55%
    09:00 +18°C° 0 mm 3 m/S 699 mmHg 50%
    10:00 +20°C° 0 mm 3 m/S 699 mmHg 44%
    11:00 +21°C° 0 mm 3 m/S 699 mmHg 44%
    12:00 +21°C° 0 mm 3 m/S 698 mmHg 44%
    13:00 +22°C° 0 mm 3 m/S 698 mmHg 43%
    14:00 +22°C° 0 mm 3 m/S 698 mmHg 44%
    15:00 +22°C° 0 mm 3 m/S 698 mmHg 44%
    16:00 +23°C° 0 mm 2 m/S 698 mmHg 44%
    17:00 +20°C° 0 mm 2 m/S 698 mmHg 47%
    18:00 +20°C° 0 mm 1 m/S 698 mmHg 51%
    19:00 +19°C° 0 mm 1 m/S 699 mmHg 54%
    20:00 +18°C° 0 mm 1 m/S 699 mmHg 57%
    21:00 +18°C° 0 mm 1 m/S 699 mmHg 59%
    22:00 +16°C° 0 mm 1 m/S 699 mmHg 62%
    23:00 +16°C° 0 mm 1 m/S 699 mmHg 65%

    24 April, Mittwoch

    Zeit Temperatur Niederschläge Wind Luftdruck Luftfeuchtigkeit
    00:00 +15°C° 0 mm 1 m/S 699 mmHg 67%
    01:00 +15°C° 0 mm 2 m/S 698 mmHg 70%
    02:00 +15°C° 0 mm 2 m/S 698 mmHg 72%
    03:00 +14°C° 0 mm 2 m/S 698 mmHg 74%
    04:00 +14°C° 0 mm 2 m/S 698 mmHg 76%
    05:00 +15°C° 0 mm 2 m/S 698 mmHg 75%
    06:00 +15°C° 0 mm 2 m/S 699 mmHg 75%
    07:00 +15°C° 0 mm 2 m/S 699 mmHg 74%
    08:00 +17°C° 0 mm 2 m/S 699 mmHg 68%
    09:00 +18°C° 0 mm 2 m/S 700 mmHg 62%
    10:00 +19°C° 0 mm 2 m/S 700 mmHg 56%
    11:00 +20°C° 0 mm 2 m/S 699 mmHg 52%
    12:00 +21°C° 0 mm 2 m/S 699 mmHg 48%
    13:00 +23°C° 0 mm 2 m/S 699 mmHg 44%
    14:00 +23°C° 0 mm 2 m/S 699 mmHg 43%
    15:00 +23°C° 0 mm 2 m/S 699 mmHg 43%
    16:00 +24°C° 0 mm 2 m/S 699 mmHg 42%
    17:00 +21°C° 0 mm 2 m/S 699 mmHg 46%
    18:00 +20°C° 0 mm 2 m/S 699 mmHg 50%
    19:00 +20°C° 0 mm 1 m/S 699 mmHg 55%
    20:00 +18°C° 0 mm 2 m/S 699 mmHg 55%
    21:00 +18°C° 0 mm 2 m/S 699 mmHg 55%
    22:00 +18°C° 0 mm 2 m/S 700 mmHg 55%
    23:00 +18°C° 0 mm 1 m/S 699 mmHg 57%
    Mehr zeigen